OCN12D LGIR-EDDF

Flight info

Callsign OCN12D
Flight time 2h 49m
Altitude 32000
Route EPALO UM749 DIRMI UL613 XANIS DCT DIMIS DCT PETAK/N0444F340 DCT GLOMY DCT ELTIB DCT TUPUS DCT GORPA DCT SIMBA DCT AKINI T161 DEBHI DEBHI1B
Aircraft A320/M-SDE3FGHIRWY/LB1

Departure

Time 2026-05-07 11:03
Airport Heraklion International Nikos Kazantzakis Airport (LGIR)

Arrival

Time 2026-05-07 13:52
Airport Frankfurt Main Airport (EDDF)
Time Latitude Longitude Altitude Speed Heading
2026-05-07 10:06 35.33769 25.17411 91 ft 0 kts 274°
2026-05-07 10:59 35.33772 25.17381 93 ft 6 kts 284°
2026-05-07 10:59 35.33806 25.17369 91 ft 8 kts
2026-05-07 10:59 35.33879 25.17376 91 ft 10 kts
2026-05-07 11:00 35.33923 25.17339 91 ft 8 kts 285°
2026-05-07 11:00 35.33927 25.17282 91 ft 6 kts 274°
2026-05-07 11:00 35.33930 25.17237 90 ft 5 kts 275°
2026-05-07 11:00 35.33936 25.17159 90 ft 12 kts 275°
2026-05-07 11:01 35.33942 25.17065 91 ft 12 kts 274°
2026-05-07 11:01 35.33952 25.16914 90 ft 20 kts 274°
2026-05-07 11:01 35.33974 25.16747 92 ft 20 kts 303°
2026-05-07 11:01 35.34051 25.16622 94 ft 10 kts 337°
2026-05-07 11:02 35.34069 25.16672 90 ft 0 kts 93°
2026-05-07 11:02 35.34066 25.16714 90 ft 30 kts 94°
2026-05-07 11:02 35.34044 25.17040 90 ft 85 kts 95°
2026-05-07 11:02 35.33974 25.18063 95 ft 153 kts 94°
2026-05-07 11:03 35.33890 25.19450 623 ft 168 kts 94°
2026-05-07 11:03 35.33842 25.20889 1433 ft 172 kts 80°
2026-05-07 11:03 35.34358 25.22258 1967 ft 187 kts 46°
2026-05-07 11:03 35.35549 25.23030 2184 ft 209 kts
2026-05-07 11:04 35.36989 25.22631 2588 ft 221 kts 325°
2026-05-07 11:04 35.37941 25.21156 3140 ft 226 kts 295°
2026-05-07 11:04 35.38593 25.19410 3875 ft 226 kts 294°
2026-05-07 11:04 35.39230 25.17649 4573 ft 227 kts 293°
2026-05-07 11:05 35.40063 25.15999 5224 ft 231 kts 317°
2026-05-07 11:05 35.41447 25.15024 5888 ft 233 kts 340°
2026-05-07 11:05 35.43016 25.14309 6300 ft 249 kts 339°
2026-05-07 11:05 35.44711 25.13527 6635 ft 270 kts 339°
2026-05-07 11:06 35.46502 25.12695 7248 ft 279 kts 339°
2026-05-07 11:06 35.48333 25.11844 7995 ft 283 kts 339°
2026-05-07 11:06 35.50191 25.10977 8752 ft 287 kts 339°
2026-05-07 11:06 35.52068 25.10102 9486 ft 290 kts 339°
2026-05-07 11:07 35.53964 25.09220 10222 ft 293 kts 339°
2026-05-07 11:07 35.55891 25.08326 10568 ft 310 kts 339°
2026-05-07 11:07 35.58014 25.07336 10751 ft 333 kts 339°
2026-05-07 11:07 35.60222 25.06307 11173 ft 344 kts 339°
2026-05-07 11:08 35.62481 25.05257 11808 ft 349 kts 339°
2026-05-07 11:08 35.64724 25.04212 12486 ft 351 kts 339°
2026-05-07 11:08 35.67015 25.03145 13147 ft 353 kts 339°
2026-05-07 11:08 35.69324 25.02068 13767 ft 357 kts 339°
2026-05-07 11:09 35.71653 25.00980 14374 ft 360 kts 339°
2026-05-07 11:09 35.74003 24.99880 14961 ft 363 kts 339°
2026-05-07 11:09 35.76373 24.98767 15531 ft 366 kts 339°
2026-05-07 11:09 35.78765 24.97640 16104 ft 370 kts 339°
2026-05-07 11:10 35.81102 24.96329 16640 ft 372 kts 327°
2026-05-07 11:10 35.83202 24.94432 17170 ft 375 kts 322°
2026-05-07 11:10 35.85283 24.92477 17694 ft 378 kts 322°
2026-05-07 11:10 35.87375 24.90501 18200 ft 381 kts 322°
2026-05-07 11:11 35.89484 24.88499 18686 ft 384 kts 322°
2026-05-07 11:11 35.91606 24.86481 19198 ft 386 kts 322°
2026-05-07 11:11 35.93736 24.84457 19670 ft 388 kts 322°
2026-05-07 11:11 35.95893 24.82407 20134 ft 392 kts 322°
2026-05-07 11:12 35.98054 24.80352 20600 ft 394 kts 322°
2026-05-07 11:12 36.00238 24.78276 21052 ft 397 kts 322°
2026-05-07 11:12 36.02432 24.76200 21483 ft 399 kts 322°
2026-05-07 11:12 36.04657 24.74122 21909 ft 401 kts 322°
2026-05-07 11:13 36.06898 24.72046 22316 ft 404 kts 322°
2026-05-07 11:13 36.09152 24.69962 22715 ft 406 kts 322°
2026-05-07 11:13 36.11419 24.67860 23100 ft 409 kts 322°
2026-05-07 11:13 36.13698 24.65740 23492 ft 411 kts 322°
2026-05-07 11:14 36.15986 24.63605 23858 ft 413 kts 322°
2026-05-07 11:14 36.18279 24.61464 24237 ft 416 kts 322°
2026-05-07 11:14 36.20596 24.59296 24600 ft 417 kts 322°
2026-05-07 11:14 36.22923 24.57118 24954 ft 419 kts 322°
2026-05-07 11:15 36.25254 24.54938 25293 ft 421 kts 322°
2026-05-07 11:15 36.27600 24.52743 25616 ft 423 kts 322°
2026-05-07 11:15 36.29952 24.50540 25954 ft 425 kts 322°
2026-05-07 11:15 36.32318 24.48321 26282 ft 427 kts 322°
2026-05-07 11:16 36.34682 24.46100 26611 ft 428 kts 322°
2026-05-07 11:16 36.37069 24.43852 26918 ft 430 kts 322°
2026-05-07 11:16 36.39458 24.41602 27232 ft 432 kts 322°
2026-05-07 11:16 36.41856 24.39344 27529 ft 434 kts 321°
2026-05-07 11:17 36.44261 24.37078 27834 ft 435 kts 321°
2026-05-07 11:17 36.46678 24.34799 28121 ft 437 kts 321°
2026-05-07 11:17 36.49062 24.32545 28400 ft 438 kts 321°
2026-05-07 11:17 36.51522 24.30216 28663 ft 439 kts 321°
2026-05-07 11:18 36.53957 24.27910 28916 ft 441 kts 321°
2026-05-07 11:18 36.56366 24.25632 29160 ft 442 kts 321°
2026-05-07 11:18 36.58819 24.23320 29405 ft 443 kts 321°
2026-05-07 11:18 36.61285 24.20990 29646 ft 445 kts 321°
2026-05-07 11:19 36.63753 24.18653 29887 ft 447 kts 321°
2026-05-07 11:19 36.66227 24.16307 30133 ft 448 kts 321°
2026-05-07 11:19 36.68709 24.13951 30378 ft 449 kts 321°
2026-05-07 11:19 36.71180 24.11599 30704 ft 447 kts 321°
2026-05-07 11:20 36.73649 24.09245 31071 ft 445 kts 321°
2026-05-07 11:20 36.76106 24.06902 31411 ft 443 kts 321°
2026-05-07 11:20 36.78551 24.04569 31763 ft 441 kts 321°
2026-05-07 11:20 36.80974 24.02253 32100 ft 439 kts 321°
2026-05-07 11:21 36.83395 23.99939 32429 ft 437 kts 321°
2026-05-07 11:21 36.85806 23.97638 32746 ft 436 kts 321°
2026-05-07 11:21 36.88207 23.95348 33086 ft 433 kts 321°
2026-05-07 11:21 36.90594 23.93069 33401 ft 431 kts 320°
2026-05-07 11:22 36.92976 23.90795 33706 ft 429 kts 320°
2026-05-07 11:22 36.95340 23.88537 33994 ft 428 kts 320°
2026-05-07 11:22 36.97708 23.86275 34110 ft 426 kts 320°
2026-05-07 11:22 37.00058 23.84031 34129 ft 424 kts 320°
2026-05-07 11:23 37.04704 23.79581 34133 ft 423 kts 320°
2026-05-07 11:23 37.09407 23.75064 34137 ft 424 kts 320°
2026-05-07 11:24 37.14067 23.70584 34139 ft 425 kts 320°
2026-05-07 11:24 37.18752 23.66069 34136 ft 425 kts 320°
2026-05-07 11:25 37.23443 23.61549 34133 ft 426 kts 320°
2026-05-07 11:25 37.26938 23.58173 34131 ft 426 kts 320°
2026-05-07 11:26 37.31603 23.53518 34130 ft 426 kts 319°
2026-05-07 11:26 37.36164 23.48846 34127 ft 426 kts 318°
2026-05-07 11:27 37.40760 23.44126 34125 ft 426 kts 318°
2026-05-07 11:27 37.45372 23.39418 34129 ft 427 kts 319°
2026-05-07 11:28 37.49999 23.34714 34134 ft 427 kts 319°
2026-05-07 11:28 37.54613 23.30012 34131 ft 427 kts 318°
2026-05-07 11:29 37.59226 23.25295 34129 ft 427 kts 319°
2026-05-07 11:29 37.63852 23.20559 34134 ft 428 kts 319°
2026-05-07 11:30 37.68473 23.15817 34143 ft 428 kts 319°
2026-05-07 11:30 37.73092 23.11062 34148 ft 428 kts 319°
2026-05-07 11:31 37.77700 23.06317 34145 ft 427 kts 319°
2026-05-07 11:31 37.82308 23.01565 34142 ft 427 kts 319°
2026-05-07 11:32 37.89212 22.94422 34140 ft 427 kts 319°
2026-05-07 11:33 37.93813 22.89657 34141 ft 428 kts 319°
2026-05-07 11:33 37.98418 22.84891 34137 ft 427 kts 319°
2026-05-07 11:34 38.03029 22.80108 34132 ft 428 kts 319°
2026-05-07 11:34 38.07624 22.75323 34119 ft 429 kts 319°
2026-05-07 11:35 38.12250 22.70510 34118 ft 430 kts 319°
2026-05-07 11:35 38.16873 22.65687 34120 ft 430 kts 319°
2026-05-07 11:36 38.21499 22.60856 34120 ft 430 kts 318°
2026-05-07 11:36 38.26123 22.56016 34124 ft 431 kts 318°
2026-05-07 11:37 38.30746 22.51171 34122 ft 430 kts 318°
2026-05-07 11:37 38.35334 22.46353 34122 ft 431 kts 318°
2026-05-07 11:38 38.39952 22.41477 34122 ft 431 kts 318°
2026-05-07 11:38 38.44559 22.36609 34125 ft 431 kts 318°
2026-05-07 11:39 38.49186 22.31726 34126 ft 431 kts 318°
2026-05-07 11:39 38.53799 22.26842 34152 ft 431 kts 318°
2026-05-07 11:40 38.58424 22.21945 34143 ft 432 kts 318°
2026-05-07 11:40 38.63041 22.17044 34159 ft 431 kts 318°
2026-05-07 11:41 38.67652 22.12138 34149 ft 432 kts 318°
2026-05-07 11:41 38.72267 22.07218 34147 ft 432 kts 318°
2026-05-07 11:42 38.76888 22.02295 34144 ft 432 kts 318°
2026-05-07 11:42 38.81501 21.97361 34143 ft 432 kts 318°
2026-05-07 11:43 38.86114 21.92424 34137 ft 432 kts 318°
2026-05-07 11:43 38.90728 21.87480 34134 ft 432 kts 317°
2026-05-07 11:44 38.95332 21.82524 34131 ft 432 kts 317°
2026-05-07 11:44 38.99936 21.77558 34130 ft 433 kts 317°
2026-05-07 11:45 39.04554 21.72579 34128 ft 433 kts 317°
2026-05-07 11:45 39.09170 21.67600 34129 ft 434 kts 318°
2026-05-07 11:46 39.13793 21.62607 34129 ft 434 kts 317°
2026-05-07 11:46 39.18405 21.57598 34131 ft 434 kts 317°
2026-05-07 11:47 39.23028 21.52583 34131 ft 434 kts 317°
2026-05-07 11:47 39.27646 21.47551 34128 ft 434 kts 317°
2026-05-07 11:48 39.32253 21.42519 34131 ft 435 kts 317°
2026-05-07 11:48 39.36878 21.37470 34135 ft 435 kts 317°
2026-05-07 11:49 39.40728 21.33266 34134 ft 436 kts 317°
2026-05-07 11:49 39.45351 21.28196 34136 ft 436 kts 317°
2026-05-07 11:50 39.49974 21.23117 34141 ft 436 kts 317°
2026-05-07 11:50 39.54596 21.18033 34144 ft 436 kts 317°
2026-05-07 11:51 39.59217 21.12938 34145 ft 436 kts 317°
2026-05-07 11:51 39.63844 21.07833 34142 ft 437 kts 317°
2026-05-07 11:52 39.68468 21.02725 34146 ft 437 kts 317°
2026-05-07 11:52 39.73092 20.97605 34142 ft 437 kts 317°
2026-05-07 11:53 39.77714 20.92476 34141 ft 437 kts 317°
2026-05-07 11:53 39.82366 20.87308 34140 ft 437 kts 317°
2026-05-07 11:54 39.86987 20.82158 34141 ft 438 kts 317°
2026-05-07 11:54 39.91616 20.76983 34138 ft 438 kts 317°
2026-05-07 11:55 39.96241 20.71812 34135 ft 439 kts 317°
2026-05-07 11:55 40.00879 20.66622 34131 ft 440 kts 317°
2026-05-07 11:56 40.05519 20.61417 34123 ft 441 kts 317°
2026-05-07 11:56 40.10613 20.57002 34121 ft 444 kts 329°
2026-05-07 11:57 40.16047 20.53044 34116 ft 445 kts 329°
2026-05-07 11:57 40.21458 20.49078 34118 ft 446 kts 329°
2026-05-07 11:58 40.26877 20.45096 34119 ft 446 kts 329°
2026-05-07 11:58 40.32297 20.41109 34120 ft 447 kts 329°
2026-05-07 11:59 40.37711 20.37115 34113 ft 447 kts 329°
2026-05-07 11:59 40.43123 20.33114 34112 ft 447 kts 329°
2026-05-07 12:00 40.48536 20.29116 34111 ft 447 kts 329°
2026-05-07 12:00 40.53969 20.25103 34113 ft 447 kts 329°
2026-05-07 12:01 40.59388 20.21075 34114 ft 447 kts 328°
2026-05-07 12:01 40.64803 20.17038 34115 ft 447 kts 328°
2026-05-07 12:02 40.70221 20.12998 34119 ft 448 kts 328°
2026-05-07 12:02 40.75603 20.08974 34114 ft 448 kts 328°
2026-05-07 12:03 40.81051 20.04891 34113 ft 448 kts 328°
2026-05-07 12:03 40.86474 20.00840 34113 ft 448 kts 328°
2026-05-07 12:04 40.91850 19.96797 34108 ft 448 kts 328°
2026-05-07 12:04 40.97260 19.92710 34100 ft 448 kts 328°
2026-05-07 12:05 41.02677 19.88625 34098 ft 449 kts 328°
2026-05-07 12:05 41.08102 19.84541 34091 ft 448 kts 328°
2026-05-07 12:06 41.13525 19.80435 34080 ft 449 kts 328°
2026-05-07 12:06 41.18943 19.76319 34078 ft 449 kts 328°
2026-05-07 12:07 41.24371 19.72197 34076 ft 449 kts 328°
2026-05-07 12:07 41.29809 19.68068 34081 ft 450 kts 328°
2026-05-07 12:08 41.35275 19.63896 34077 ft 450 kts 327°
2026-05-07 12:08 41.40702 19.59744 34079 ft 450 kts 327°
2026-05-07 12:09 41.46130 19.55583 34076 ft 450 kts 327°
2026-05-07 12:09 41.51559 19.51422 34080 ft 449 kts 327°
2026-05-07 12:10 41.56981 19.47258 34080 ft 450 kts 327°
2026-05-07 12:10 41.62397 19.43081 34077 ft 450 kts 327°
2026-05-07 12:11 41.67811 19.38897 34078 ft 450 kts 327°
2026-05-07 12:11 41.73222 19.34706 34077 ft 450 kts 327°
2026-05-07 12:12 41.78636 19.30473 34083 ft 450 kts 326°
2026-05-07 12:12 41.83851 19.25949 34086 ft 449 kts 323°
2026-05-07 12:13 41.89021 19.21163 34086 ft 449 kts 322°
2026-05-07 12:13 41.94144 19.16467 34083 ft 449 kts 323°
2026-05-07 12:14 41.99334 19.11809 34083 ft 450 kts 324°
2026-05-07 12:14 42.04550 19.07140 34082 ft 450 kts 323°
2026-05-07 12:15 42.09718 19.02480 34087 ft 450 kts 323°
2026-05-07 12:15 42.14915 18.97771 34088 ft 451 kts 323°
2026-05-07 12:16 42.20116 18.93051 34099 ft 450 kts 323°
2026-05-07 12:16 42.25307 18.88327 34131 ft 449 kts 324°
2026-05-07 12:17 42.30463 18.83640 34139 ft 446 kts 324°
2026-05-07 12:17 42.35602 18.78963 34138 ft 443 kts 323°
2026-05-07 12:18 42.40704 18.74303 34134 ft 442 kts 323°
2026-05-07 12:18 42.45793 18.69638 34131 ft 441 kts 323°
2026-05-07 12:19 42.50862 18.64980 34129 ft 440 kts 323°
2026-05-07 12:19 42.55928 18.60326 34119 ft 440 kts 323°
2026-05-07 12:20 42.60992 18.55663 34118 ft 439 kts 323°
2026-05-07 12:20 42.66041 18.51006 34112 ft 439 kts 323°
2026-05-07 12:21 42.71095 18.46333 34114 ft 439 kts 323°
2026-05-07 12:21 42.76143 18.41651 34112 ft 439 kts 323°
2026-05-07 12:22 42.81193 18.36962 34108 ft 439 kts 323°
2026-05-07 12:22 42.86233 18.32265 34104 ft 439 kts 323°
2026-05-07 12:23 42.91276 18.27560 34103 ft 440 kts 323°
2026-05-07 12:23 42.96334 18.22842 34102 ft 440 kts 323°
2026-05-07 12:24 43.01387 18.18112 34103 ft 441 kts 323°
2026-05-07 12:24 43.06448 18.13371 34100 ft 441 kts 323°
2026-05-07 12:25 43.11501 18.08618 34091 ft 441 kts 323°
2026-05-07 12:25 43.16523 18.03878 34098 ft 442 kts 323°
2026-05-07 12:26 43.21582 17.99096 34099 ft 442 kts 323°
2026-05-07 12:26 43.26646 17.94315 34111 ft 442 kts 323°
2026-05-07 12:27 43.31706 17.89527 34113 ft 441 kts 323°
2026-05-07 12:27 43.36755 17.84731 34113 ft 442 kts 323°
2026-05-07 12:28 43.41809 17.79922 34112 ft 442 kts 323°
2026-05-07 12:28 43.46867 17.75092 34108 ft 442 kts 323°
2026-05-07 12:29 43.51917 17.70259 34105 ft 442 kts 323°
2026-05-07 12:29 43.56149 17.66194 34103 ft 442 kts 322°
2026-05-07 12:30 43.61022 17.61008 34101 ft 442 kts 318°
2026-05-07 12:30 43.65700 17.55599 34100 ft 442 kts 317°
2026-05-07 12:31 43.70412 17.50139 34099 ft 442 kts 318°
2026-05-07 12:31 43.75170 17.44749 34096 ft 442 kts 319°
2026-05-07 12:32 43.79941 17.39381 34096 ft 442 kts 319°
2026-05-07 12:32 43.84701 17.34001 34088 ft 441 kts 318°
2026-05-07 12:33 43.91822 17.25905 34089 ft 441 kts 318°
2026-05-07 12:33 43.96557 17.20507 34093 ft 441 kts 318°
2026-05-07 12:34 44.01293 17.15084 34091 ft 441 kts 318°
2026-05-07 12:34 44.06031 17.09662 34079 ft 441 kts 318°
2026-05-07 12:35 44.10778 17.04241 34072 ft 442 kts 318°
2026-05-07 12:35 44.15520 16.98798 34069 ft 442 kts 317°
2026-05-07 12:36 44.20258 16.93326 34071 ft 442 kts 317°
2026-05-07 12:36 44.24985 16.87860 34069 ft 441 kts 317°
2026-05-07 12:37 44.29713 16.82391 34069 ft 442 kts 317°
2026-05-07 12:37 44.34592 16.77150 34069 ft 443 kts 322°
2026-05-07 12:38 44.39663 16.72254 34071 ft 444 kts 323°
2026-05-07 12:38 44.44745 16.67364 34069 ft 443 kts 322°
2026-05-07 12:39 44.49778 16.62373 34069 ft 443 kts 321°
2026-05-07 12:39 44.54787 16.57345 34067 ft 443 kts 321°
2026-05-07 12:40 44.59790 16.52301 34065 ft 443 kts 321°
2026-05-07 12:40 44.64796 16.47264 34061 ft 443 kts 321°
2026-05-07 12:41 44.69805 16.42226 34061 ft 443 kts 321°
2026-05-07 12:41 44.74813 16.37181 34061 ft 443 kts 321°
2026-05-07 12:42 44.79811 16.32132 34057 ft 443 kts 321°
2026-05-07 12:42 44.84812 16.27070 34053 ft 442 kts 321°
2026-05-07 12:43 44.89807 16.22002 34048 ft 442 kts 321°
2026-05-07 12:43 44.94794 16.16923 34036 ft 442 kts 321°
2026-05-07 12:44 44.99787 16.11830 34039 ft 442 kts 321°
2026-05-07 12:44 45.04774 16.06736 34029 ft 442 kts 321°
2026-05-07 12:45 45.09761 16.01627 34028 ft 443 kts 321°
2026-05-07 12:45 45.14759 15.96508 34030 ft 443 kts 320°
2026-05-07 12:46 45.19751 15.91385 34028 ft 443 kts 320°
2026-05-07 12:46 45.24767 15.86283 34020 ft 444 kts 321°
2026-05-07 12:47 45.29891 15.81373 34016 ft 445 kts 322°
2026-05-07 12:47 45.35039 15.76499 34018 ft 445 kts 322°
2026-05-07 12:48 45.40130 15.71600 34012 ft 445 kts 322°
2026-05-07 12:48 45.45240 15.66641 34015 ft 445 kts 322°
2026-05-07 12:49 45.50352 15.61667 34014 ft 445 kts 321°
2026-05-07 12:49 45.55475 15.56680 34008 ft 446 kts 321°
2026-05-07 12:50 45.60593 15.51699 34008 ft 445 kts 322°
2026-05-07 12:50 45.65708 15.46709 34008 ft 445 kts 321°
2026-05-07 12:51 45.70824 15.41704 34005 ft 445 kts 321°
2026-05-07 12:51 45.75929 15.36688 34001 ft 445 kts 321°
2026-05-07 12:52 45.81086 15.31738 33997 ft 446 kts 323°
2026-05-07 12:52 45.86370 15.27036 33996 ft 447 kts 324°
2026-05-07 12:53 45.91669 15.22366 33999 ft 447 kts 324°
2026-05-07 12:53 45.96942 15.17606 33994 ft 447 kts 323°
2026-05-07 12:54 46.02196 15.12802 33992 ft 447 kts 323°
2026-05-07 12:54 46.07444 15.08015 33973 ft 447 kts 323°
2026-05-07 12:55 46.12711 15.03214 33967 ft 448 kts 323°
2026-05-07 12:55 46.17971 14.98404 33971 ft 448 kts 323°
2026-05-07 12:56 46.23236 14.93564 33968 ft 449 kts 323°
2026-05-07 12:56 46.28502 14.88718 33962 ft 449 kts 323°
2026-05-07 12:57 46.33775 14.83868 33961 ft 449 kts 323°
2026-05-07 12:57 46.39010 14.79036 33954 ft 449 kts 323°
2026-05-07 12:58 46.44272 14.74156 33945 ft 449 kts 323°
2026-05-07 12:58 46.49540 14.69259 33945 ft 450 kts 323°
2026-05-07 12:59 46.54809 14.64355 33936 ft 450 kts 323°
2026-05-07 12:59 46.60080 14.59449 33931 ft 450 kts 323°
2026-05-07 13:00 46.65352 14.54530 33925 ft 450 kts 323°
2026-05-07 13:00 46.70622 14.49589 33919 ft 450 kts 323°
2026-05-07 13:01 46.75896 14.44641 33918 ft 451 kts 323°
2026-05-07 13:01 46.81162 14.39682 33915 ft 451 kts 323°
2026-05-07 13:02 46.86434 14.34703 33914 ft 451 kts 323°
2026-05-07 13:02 46.91705 14.29724 33920 ft 451 kts 323°
2026-05-07 13:03 46.96978 14.24733 33917 ft 451 kts 323°
2026-05-07 13:03 47.02244 14.19731 33922 ft 452 kts 323°
2026-05-07 13:04 47.07511 14.14715 33922 ft 451 kts 323°
2026-05-07 13:04 47.12777 14.09683 33928 ft 452 kts 323°
2026-05-07 13:05 47.18051 14.04642 33932 ft 453 kts 323°
2026-05-07 13:05 47.23332 13.99584 33950 ft 453 kts 323°
2026-05-07 13:06 47.28605 13.94501 33961 ft 453 kts 323°
2026-05-07 13:06 47.33878 13.89425 33958 ft 453 kts 323°
2026-05-07 13:07 47.39144 13.84339 33964 ft 453 kts 323°
2026-05-07 13:07 47.44415 13.79223 33970 ft 454 kts 323°
2026-05-07 13:08 47.49687 13.74106 33973 ft 453 kts 323°
2026-05-07 13:08 47.54950 13.68988 33979 ft 453 kts 323°
2026-05-07 13:09 47.60217 13.63845 33987 ft 454 kts 323°
2026-05-07 13:09 47.65454 13.58724 33994 ft 454 kts 323°
2026-05-07 13:10 47.70721 13.53554 34001 ft 454 kts 323°
2026-05-07 13:10 47.75982 13.48378 34006 ft 454 kts 323°
2026-05-07 13:11 47.81279 13.43155 34008 ft 454 kts 323°
2026-05-07 13:11 47.86542 13.37949 34012 ft 453 kts 323°
2026-05-07 13:12 47.91764 13.32787 34014 ft 453 kts 323°
2026-05-07 13:12 47.96161 13.28435 34018 ft 453 kts 323°
2026-05-07 13:13 48.01412 13.23212 34026 ft 453 kts 323°
2026-05-07 13:13 48.07487 13.17152 34019 ft 452 kts 323°
2026-05-07 13:14 48.11882 13.12765 34012 ft 452 kts 323°
2026-05-07 13:14 48.17105 13.07518 34014 ft 452 kts 323°
2026-05-07 13:15 48.22277 13.02173 34013 ft 450 kts 317°
2026-05-07 13:15 48.26616 12.95493 34010 ft 447 kts 308°
2026-05-07 13:16 48.30737 12.88505 34019 ft 446 kts 308°
2026-05-07 13:16 48.34856 12.81530 34017 ft 447 kts 308°
2026-05-07 13:17 48.38974 12.74539 34016 ft 446 kts 308°
2026-05-07 13:17 48.43067 12.67545 34018 ft 446 kts 308°
2026-05-07 13:18 48.47142 12.60568 34014 ft 446 kts 309°
2026-05-07 13:18 48.51233 12.53546 34016 ft 446 kts 308°
2026-05-07 13:19 48.55316 12.46518 34015 ft 446 kts 308°
2026-05-07 13:19 48.59402 12.39463 34015 ft 445 kts 308°
2026-05-07 13:20 48.63473 12.32410 34021 ft 446 kts 308°
2026-05-07 13:20 48.67552 12.25337 34021 ft 446 kts 308°
2026-05-07 13:21 48.71622 12.18248 34019 ft 446 kts 307°
2026-05-07 13:21 48.74757 12.10276 34028 ft 439 kts 288°
2026-05-07 13:22 48.76169 12.01361 34025 ft 435 kts 277°
2026-05-07 13:22 48.77142 11.92308 34014 ft 435 kts 277°
2026-05-07 13:23 48.78115 11.83253 34013 ft 436 kts 277°
2026-05-07 13:23 48.79081 11.74171 34019 ft 436 kts 277°
2026-05-07 13:24 48.80030 11.65087 34018 ft 436 kts 277°
2026-05-07 13:24 48.80976 11.55999 34017 ft 436 kts 277°
2026-05-07 13:25 48.81920 11.46894 34012 ft 437 kts 277°
2026-05-07 13:25 48.82864 11.37794 34018 ft 437 kts 277°
2026-05-07 13:26 48.83873 11.28721 34015 ft 437 kts 283°
2026-05-07 13:26 48.86359 11.20287 34014 ft 442 kts 303°
2026-05-07 13:27 48.90561 11.13465 34011 ft 444 kts 316°
2026-05-07 13:27 48.94409 11.08116 34010 ft 445 kts 316°
2026-05-07 13:28 48.96084 11.05772 33832 ft 446 kts 315°
2026-05-07 13:28 48.98374 11.02564 33582 ft 446 kts 315°
2026-05-07 13:28 49.00649 10.99372 33140 ft 443 kts 316°
2026-05-07 13:28 49.02905 10.96206 32544 ft 440 kts 316°
2026-05-07 13:29 49.05148 10.93053 31966 ft 437 kts 316°
2026-05-07 13:29 49.07383 10.89907 31387 ft 434 kts 316°
2026-05-07 13:29 49.09598 10.86783 30813 ft 432 kts 316°
2026-05-07 13:29 49.11793 10.83680 30249 ft 429 kts 316°
2026-05-07 13:30 49.13970 10.80598 29703 ft 426 kts 316°
2026-05-07 13:30 49.16132 10.77535 29153 ft 423 kts 316°
2026-05-07 13:30 49.18281 10.74492 28602 ft 419 kts 316°
2026-05-07 13:30 49.20402 10.71461 28051 ft 416 kts 315°
2026-05-07 13:31 49.22449 10.68372 27521 ft 412 kts 314°
2026-05-07 13:31 49.24438 10.65235 26994 ft 408 kts 313°
2026-05-07 13:31 49.26381 10.62100 26488 ft 404 kts 313°
2026-05-07 13:31 49.28300 10.58991 25982 ft 400 kts 313°
2026-05-07 13:32 49.30209 10.55917 25499 ft 395 kts 313°
2026-05-07 13:32 49.32104 10.52889 25023 ft 391 kts 313°
2026-05-07 13:32 49.33978 10.49913 24553 ft 386 kts 313°
2026-05-07 13:32 49.35817 10.46949 24095 ft 381 kts 310°
2026-05-07 13:33 49.37392 10.43711 23692 ft 378 kts 304°
2026-05-07 13:33 49.38895 10.40411 23311 ft 377 kts 304°
2026-05-07 13:33 49.40398 10.37131 22926 ft 375 kts 304°
2026-05-07 13:33 49.41898 10.33866 22540 ft 373 kts 304°
2026-05-07 13:34 49.43387 10.30618 22158 ft 371 kts 304°
2026-05-07 13:34 49.46324 10.24160 21401 ft 367 kts 304°
2026-05-07 13:34 49.47780 10.20947 21028 ft 365 kts 304°
2026-05-07 13:35 49.49227 10.17757 20654 ft 363 kts 304°
2026-05-07 13:35 49.50667 10.14580 20281 ft 361 kts 304°
2026-05-07 13:35 49.52099 10.11418 19923 ft 359 kts 304°
2026-05-07 13:35 49.53523 10.08276 19557 ft 357 kts 304°
2026-05-07 13:36 49.54936 10.05145 19193 ft 356 kts 304°
2026-05-07 13:36 49.56345 10.02013 18841 ft 354 kts 304°
2026-05-07 13:36 49.57742 9.98907 18477 ft 352 kts 304°
2026-05-07 13:36 49.59130 9.95819 18107 ft 350 kts 304°
2026-05-07 13:37 49.60516 9.92739 17749 ft 348 kts 304°
2026-05-07 13:37 49.61891 9.89675 17394 ft 347 kts 304°
2026-05-07 13:37 49.63259 9.86623 17038 ft 345 kts 304°
2026-05-07 13:37 49.64618 9.83588 16684 ft 343 kts 304°
2026-05-07 13:38 49.65968 9.80575 16334 ft 341 kts 304°
2026-05-07 13:38 49.67313 9.77566 15986 ft 339 kts 304°
2026-05-07 13:38 49.68645 9.74582 15642 ft 337 kts 304°
2026-05-07 13:38 49.69966 9.71619 15296 ft 335 kts 304°
2026-05-07 13:39 49.71289 9.68645 14950 ft 333 kts 304°
2026-05-07 13:39 49.72578 9.65743 14615 ft 332 kts 304°
2026-05-07 13:39 49.73881 9.62812 14280 ft 330 kts 304°
2026-05-07 13:39 49.75191 9.59856 13935 ft 328 kts 304°
2026-05-07 13:40 49.76475 9.56956 13600 ft 326 kts 304°
2026-05-07 13:40 49.77758 9.54062 13263 ft 325 kts 304°
2026-05-07 13:40 49.79031 9.51189 12930 ft 323 kts 304°
2026-05-07 13:40 49.80295 9.48327 12602 ft 321 kts 304°
2026-05-07 13:41 49.81549 9.45485 12274 ft 319 kts 304°
2026-05-07 13:41 49.82958 9.42831 12012 ft 319 kts 312°
2026-05-07 13:41 49.84455 9.40321 11765 ft 317 kts 312°
2026-05-07 13:41 49.85963 9.37823 11515 ft 316 kts 313°
2026-05-07 13:42 49.87465 9.35348 11266 ft 314 kts 313°
2026-05-07 13:42 49.88951 9.32902 10907 ft 310 kts 313°
2026-05-07 13:42 49.90429 9.30465 10502 ft 309 kts 313°
2026-05-07 13:42 49.91891 9.28048 10215 ft 304 kts 312°
2026-05-07 13:43 49.93287 9.25725 10095 ft 293 kts 312°
2026-05-07 13:43 49.94658 9.23436 9883 ft 285 kts 312°
2026-05-07 13:43 49.96023 9.21154 9610 ft 286 kts 312°
2026-05-07 13:43 49.97363 9.18912 9222 ft 286 kts 312°
2026-05-07 13:44 49.98715 9.16652 8804 ft 287 kts 312°
2026-05-07 13:44 50.00063 9.14397 8508 ft 282 kts 312°
2026-05-07 13:44 50.01416 9.12136 8124 ft 281 kts 312°
2026-05-07 13:44 50.02736 9.09926 7552 ft 278 kts 312°
2026-05-07 13:45 50.04038 9.07742 6943 ft 275 kts 313°
2026-05-07 13:45 50.05311 9.05607 6427 ft 270 kts 312°
2026-05-07 13:45 50.06598 9.03439 5972 ft 267 kts 313°
2026-05-07 13:45 50.07837 9.01348 5539 ft 265 kts 313°
2026-05-07 13:46 50.09088 8.99241 5239 ft 253 kts 313°
2026-05-07 13:46 50.10182 8.97264 5169 ft 230 kts 300°
2026-05-07 13:46 50.10652 8.94969 5104 ft 227 kts 278°
2026-05-07 13:46 50.10797 8.92564 5043 ft 218 kts 274°
2026-05-07 13:47 50.10891 8.90263 4963 ft 208 kts 274°
2026-05-07 13:47 50.10923 8.88067 4835 ft 199 kts 261°
2026-05-07 13:47 50.10500 8.86017 4402 ft 201 kts 250°
2026-05-07 13:47 50.09999 8.83956 3884 ft 206 kts 250°
2026-05-07 13:48 50.09506 8.81883 3486 ft 200 kts 250°
2026-05-07 13:48 50.09039 8.79904 3208 ft 189 kts 250°
2026-05-07 13:48 50.08597 8.78037 2969 ft 179 kts 250°
2026-05-07 13:48 50.08180 8.76269 2734 ft 167 kts 250°
2026-05-07 13:49 50.07794 8.74636 2531 ft 154 kts 250°
2026-05-07 13:49 50.07437 8.73123 2321 ft 146 kts 250°
2026-05-07 13:49 50.07087 8.71644 2123 ft 144 kts 250°
2026-05-07 13:49 50.06743 8.70188 1931 ft 143 kts 250°
2026-05-07 13:50 50.06399 8.68738 1737 ft 142 kts 250°
2026-05-07 13:50 50.06056 8.67290 1553 ft 142 kts 249°
2026-05-07 13:50 50.05714 8.65851 1365 ft 142 kts 249°
2026-05-07 13:50 50.05373 8.64417 1174 ft 141 kts 249°
2026-05-07 13:51 50.05033 8.62987 990 ft 141 kts 249°
2026-05-07 13:51 50.04692 8.61551 802 ft 142 kts 250°
2026-05-07 13:51 50.04346 8.60117 624 ft 141 kts 250°
2026-05-07 13:51 50.04014 8.58694 421 ft 139 kts 249°
2026-05-07 13:52 50.03696 8.57359 355 ft 117 kts 249°
2026-05-07 13:52 50.03514 8.56600 350 ft 42 kts 248°
2026-05-07 13:52 50.03446 8.56273 358 ft 19 kts 260°
2026-05-07 13:52 50.03436 8.56056 354 ft 22 kts 277°
2026-05-07 13:53 50.03458 8.55869 348 ft 3 kts 279°
2026-05-07 13:53 50.03461 8.55836 345 ft 3 kts 279°
2026-05-07 13:53 50.03465 8.55805 350 ft 5 kts 279°
2026-05-07 13:53 50.03518 8.55699 346 ft 17 kts
2026-05-07 13:54 50.03577 8.55826 350 ft 14 kts 70°
2026-05-07 13:54 50.03614 8.55982 350 ft 18 kts 69°
2026-05-07 13:54 50.03658 8.56164 352 ft 18 kts 70°
2026-05-07 13:54 50.03704 8.56357 355 ft 22 kts 70°
2026-05-07 13:55 50.03764 8.56609 357 ft 26 kts 70°
2026-05-07 13:55 50.03805 8.56785 353 ft 27 kts 70°
2026-05-07 13:55 50.03872 8.57061 360 ft 27 kts 70°
2026-05-07 13:55 50.03935 8.57325 362 ft 26 kts 70°
2026-05-07 13:56 50.03996 8.57585 365 ft 26 kts 70°
2026-05-07 13:56 50.04061 8.57851 366 ft 27 kts 69°
2026-05-07 13:56 50.04108 8.58047 371 ft 11 kts 69°
2026-05-07 13:56 50.04145 8.58136 372 ft 9 kts 36°
2026-05-07 13:57 50.04203 8.58181 366 ft 9 kts 26°
2026-05-07 13:57 50.04259 8.58214 369 ft 9 kts
2026-05-07 13:57 50.04329 8.58179 367 ft 9 kts 340°
2026-05-07 13:57 50.04405 8.58135 367 ft 13 kts 340°
2026-05-07 13:58 50.04496 8.58083 367 ft 15 kts 339°
2026-05-07 13:58 50.04607 8.58018 362 ft 20 kts 339°
2026-05-07 13:58 50.04747 8.57938 358 ft 23 kts 340°
2026-05-07 13:58 50.04808 8.57901 361 ft 0 kts 335°
2026-05-07 13:59 50.04853 8.57820 361 ft 17 kts 296°
2026-05-07 13:59 50.04906 8.57760 357 ft 8 kts 26°
2026-05-07 13:59 50.04947 8.57788 364 ft 2 kts 21°
2026-05-07 13:59 50.04948 8.57788 359 ft 0 kts 21°
2026-05-07 14:11 50.04948 8.57789 358 ft 0 kts 21°